Location: Newark
(28.9833°N, 10.0667°W)
Time: 13:59:20
(UTC+00:00)

Hubble Space Telescope - Pass Details

Date: 13 December 2019
Orbit: 536 x 540 km, 28.5° (Epoch: 24 January)

Event Time Altitude Azimuth Distance (km) Brightness Sun altitude
Exits shadow 05:23:00 15° 181° (S) 1,474 3.1 -25.9°
Maximum altitude 05:24:26 18° 155° (SSE) 1,351 3.2 -25.6°
Drops below altitude 10° 05:27:16 10° 111° (ESE) 1,784 4.5 -25.0°
Sets 05:30:05 0° 92° (E) 2,677 5.7 -24.4°
